1515085200.12,32337,7.5,72004.5,-11.87,-40.29,-40.29,0,*69
1515085201.33,32338,7.5,72002.3,-11.87,-40.47,-40.35,0,*63
1515085202.6,32339,7.5,72000.8,-11.89,-40.35,-40.29,0,*64
1515085203.81,32340,7.5,72000.8,-11.87,-40.35,-40.35,0,*69
1515085205.09,32341,7.5,72002.3,-11.87,-40.09,-40.09,0,*68
1515085206.38,32342,7.5,72000.5,-11.89,-39.97,-39.97,0,*65
1515085207.63,32343,7.5,72000.0,-11.87,-39.91,-39.97,0,*6C
1515085208.86,32344,7.5,72002.3,-11.87,-39.91,-39.91,0,*6D
1515085210.13,32345,7.5,72000.8,-11.89,-39.91,-39.97,0,*64
1515085211.38,32346,7.5,72006.8,-11.87,-39.97,-39.91,0,*69
1515085212.63,32347,7.5,72004.0,-11.87,-39.91,-39.79,0,*68
1515085213.92,32348,7.5,72002.8,-11.89,-39.97,-39.97,0,*6F
1515085215.18,32349,7.5,72004.0,-11.87,-39.97,-39.97,0,*60
1515085216.43,32350,7.5,71998.3,-11.87,-39.97,-39.91,0,*6E
1515085217.7,32351,7.5,72000.3,-11.87,-39.59,-39.53,0,*63
1515085218.94,32352,7.44,71990.0,-11.83,-39.47,-39.53,0,*6B
1515085220.19,32353,7.44,71986.5,-11.83,-39.35,-39.29,0,*62
1515085221.43,32354,7.5,71988.8,-11.83,-39.29,-39.09,0,*6A
1515085222.71,32355,7.5,71990.8,-11.85,-39.53,-39.53,0,*6F
1515085223.93,32356,7.5,71996.3,-11.83,-39.47,-39.47,0,*6A
1515085225.14,32357,7.5,71996.5,-11.83,-39.47,-39.47,0,*6B
1515085226.38,32358,7.5,71996.0,-11.83,-39.47,-39.53,0,*61
1515085227.59,32359,7.5,71998.0,-11.83,-39.35,-39.47,0,*60
1515085228.85,32360,7.5,71998.0,-11.81,-39.41,-39.47,0,*6B
1515085230.15,32361,7.5,71996.8,-11.81,-39.41,-39.29,0,*62
1515085231.41,32362,7.5,71996.8,-11.79,-39.41,-39.29,0,*66
1515085232.68,32363,7.5,71992.5,-11.79,-39.29,-39.29,0,*69
1515085233.94,32364,7.5,71992.5,-11.81,-39.41,-39.47,0,*6F
1515085235.19,32365,7.5,71998.3,-11.79,-39.59,-39.47,0,*60
1515085236.45,32366,7.5,71994.3,-11.79,-39.41,-39.41,0,*6C
1515085237.66,32367,7.5,71994.5,-11.79,-39.47,-39.47,0,*6D
1515085238.94,32368,7.5,71998.5,-11.79,-39.79,-39.79,0,*62
1515085240.22,32369,7.5,71992.3,-11.75,-39.71,-39.79,0,*67
1515085241.49,32370,7.5,71994.8,-11.79,-39.59,-39.59,0,*6B
1515085242.73,32371,7.5,71994.0,-11.75,-39.35,-39.53,0,*66
1515085244.03,32372,7.44,71992.8,-11.73,-39.59,-39.59,0,*63
1515085245.28,32373,7.5,72000.0,-11.75,-39.53,-39.53,0,*64
1515085246.55,32374,7.5,71998.3,-11.75,-39.71,-39.71,0,*63
1515085247.83,32375,7.44,71994.5,-11.75,-39.59,-39.59,0,*62
1515085249.1,32376,7.5,71996.3,-11.75,-39.71,-39.79,0,*69
1515085250.37,32377,7.5,71996.5,-11.75,-39.71,-39.79,0,*68
1515085251.67,32378,7.5,71998.3,-11.73,-39.71,-39.79,0,*61
1515085252.96,32379,7.5,71992.3,-11.73,-39.71,-39.71,0,*68
1515085254.26,32380,7.5,71992.5,-11.73,-39.71,-39.71,0,*6E
1515085255.56,32381,7.5,71990.8,-11.73,-39.79,-39.79,0,*6F
1515085256.86,32382,7.44,71990.3,-11.73,-39.79,-39.79,0,*6C
1515085258.12,32383,7.5,71992.0,-11.75,-39.97,-40.09,0,*62
1515085259.39,32384,7.5,71994.8,-11.75,-40.09,-40.09,0,*6C
1515085260.68,32385,7.5,72000.0,-11.73,-39.97,-39.97,0,*6B
1515085261.94,32386,7.5,71996.3,-11.73,-39.91,-39.97,0,*6E
1515085263.24,32387,7.5,71996.8,-11.73,-39.79,-39.79,0,*69
1515085264.53,32388,7.5,71996.5,-11.73,-39.97,-39.97,0,*66
1515085265.8,32389,7.5,71992.8,-11.75,-39.79,-39.71,0,*69
1515085267.08,32390,7.44,71988.8,-11.73,-39.53,-39.53,0,*6F
1515085268.34,32391,7.5,71990.0,-11.75,-39.53,-39.53,0,*68
1515085269.6,32392,7.5,71988.5,-11.73,-39.35,-39.41,0,*6E
1515085270.88,32393,7.5,71992.0,-11.73,-39.41,-39.41,0,*6C
1515085272.18,32394,7.5,71994.3,-11.73,-39.59,-39.59,0,*6B
1515085273.48,32395,7.5,71998.0,-11.73,-39.79,-39.79,0,*6A
1515085274.78,32396,7.5,71996.5,-11.73,-39.71,-39.79,0,*61
1515085276.08,32397,7.5,71998.3,-11.71,-39.71,-39.71,0,*6A
1515085277.33,32398,7.5,71998.8,-11.71,-39.65,-39.65,0,*65
1515085278.62,32399,7.5,71998.3,-11.73,-39.71,-39.59,0,*6C
1515085279.9,32400,7.5,71994.8,-11.71,-39.91,-39.71,0,*6D
1515085281.15,32401,7.5,71998.0,-11.71,-39.91,-39.85,0,*67
1515085282.45,32402,7.5,71996.0,-11.71,-39.71,-39.71,0,*61
1515085283.71,32403,7.5,71994.0,-11.71,-39.91,-39.91,0,*60
1515085284.98,32404,7.5,71998.5,-11.71,-40.09,-40.03,0,*6D
1515085286.22,32405,7.5,71994.3,-11.71,-40.03,-40.03,0,*66
1515085287.47,32406,7.5,71996.3,-11.71,-39.91,-39.85,0,*60
1515085288.72,32407,7.5,71996.0,-11.71,-39.91,-39.91,0,*64
1515085290.01,32408,7.44,71992.0,-11.73,-39.97,-40.09,0,*60
1515085291.3,32409,7.5,71994.0,-11.73,-40.09,-40.09,0,*68
1515085292.59,32410,7.5,71996.3,-11.71,-40.29,-40.21,0,*6A
1515085293.89,32411,7.5,71996.5,-11.71,-40.29,-40.29,0,*63
1515085295.18,32412,7.5,71998.8,-11.71,-40.29,-40.29,0,*60
1515085296.47,32413,7.5,71998.5,-11.73,-40.41,-40.41,0,*63
1515085297.72,32414,7.5,71996.5,-11.75,-40.41,-40.53,0,*61
1515085298.95,32415,7.5,71998.0,-11.75,-40.53,-40.59,0,*69
1515085300.21,32416,7.5,71992.8,-11.75,-40.29,-40.29,0,*60
1515085301.45,32417,7.5,71996.8,-11.75,-40.29,-40.15,0,*6E
1515085302.66,32418,7.44,71996.3,-11.75,-40.35,-40.15,0,*6C
1515085303.9,32419,7.5,71998.3,-11.75,-40.29,-40.35,0,*62
1515085305.16,32420,7.5,71994.8,-11.73,-40.09,-40.15,0,*6E
1515085306.4,32421,7.5,71996.5,-11.75,-40.29,-40.15,0,*6B
1515085307.67,32422,7.44,71996.3,-11.75,-40.41,-40.41,0,*67
1515085308.91,32423,7.5,71998.5,-11.75,-40.29,-40.35,0,*6B
1515085310.13,32424,7.5,72000.0,-11.75,-40.15,-40.15,0,*61
1515085311.37,32425,7.5,72000.3,-11.73,-40.35,-40.35,0,*66
1515085312.58,32426,7.5,71998.5,-11.79,-40.35,-40.35,0,*6F
1515085313.82,32427,7.44,71994.8,-11.79,-40.35,-40.21,0,*6B
1515085315.07,32428,7.5,71998.8,-11.79,-40.35,-40.41,0,*62
1515085316.34,32429,7.5,72000.0,-11.79,-40.41,-40.41,0,*60
1515085317.55,32430,7.5,71998.5,-11.79,-40.47,-40.47,0,*68
1515085318.81,32431,7.5,71998.8,-11.81,-40.15,-40.15,0,*6E
1515085320.04,32432,7.5,71996.5,-11.79,-40.21,-40.35,0,*6F
1515085321.28,32433,7.5,71996.5,-11.81,-40.03,-40.03,0,*6C
1515085322.5,32434,7.44,71990.8,-11.79,-40.15,-40.03,0,*6B
1515085323.74,32435,7.5,71992.3,-11.79,-40.35,-40.21,0,*68
1515085324.99,32436,7.5,71994.3,-11.81,-40.35,-40.35,0,*69
1515085326.29,32437,7.5,71992.8,-11.81,-40.41,-40.41,0,*68
1515085327.5,32438,7.5,71996.8,-11.79,-40.47,-40.35,0,*65
1515085328.78,32439,7.5,71994.8,-11.79,-40.41,-40.41,0,*61
1515085330.05,32440,7.5,71996.8,-11.79,-40.41,-40.21,0,*69
1515085331.29,32441,7.5,71998.8,-11.81,-40.35,-40.35,0,*69
1515085332.58,32442,7.5,72002.0,-11.81,-40.41,-40.21,0,*6C
1515085333.82,32443,7.5,72000.5,-11.81,-40.35,-40.35,0,*6B
1515085335.09,32444,7.5,72002.0,-11.81,-40.41,-40.35,0,*6F
1515085336.39,32445,7.44,71996.8,-11.81,-40.41,-40.21,0,*6B
1515085337.66,32446,7.5,72002.0,-11.81,-40.35,-40.21,0,*6B
1515085338.93,32447,7.5,72000.3,-11.81,-40.35,-40.41,0,*6C
1515085340.14,32448,7.44,72000.3,-11.83,-40.65,-40.65,0,*62
1515085341.35,32449,7.44,71998.8,-11.83,-40.65,-40.73,0,*64
1515085342.57,32450,7.5,72002.8,-11.83,-40.65,-40.53,0,*6E
1515085343.78,32451,7.5,72000.0,-11.83,-40.53,-40.53,0,*6A
1515085344.99,32452,7.5,72002.3,-11.83,-40.47,-40.47,0,*69
1515085346.23,32453,7.5,71998.8,-11.85,-40.47,-40.47,0,*6E
1515085347.47,32454,7.5,72000.0,-11.85,-40.47,-40.47,0,*69
1515085348.71,32455,7.5,71996.8,-11.83,-40.47,-40.41,0,*68
1515085350.01,32456,7.5,71996.8,-11.85,-40.41,-40.41,0,*6B
1515085351.23,32457,7.44,71994.8,-11.83,-40.73,-40.65,0,*6B
1515085352.5,32458,7.5,71996.3,-11.85,-40.73,-40.85,0,*6C
1515085353.76,32459,7.5,71996.3,-11.85,-40.73,-40.85,0,*6D
1515085355.0,32460,7.5,71994.3,-11.85,-40.65,-40.73,0,*69
1515085356.24,32461,7.5,71996.3,-11.85,-40.65,-40.53,0,*6A
1515085357.51,32462,7.5,72000.3,-11.87,-40.59,-40.59,0,*6E
1515085358.78,32463,7.5,72004.8,-11.87,-40.59,-40.59,0,*6F
1515085360.02,32464,7.5,72004.0,-11.87,-40.59,-40.47,0,*67
1515085361.24,32465,7.44,72000.5,-11.87,-40.47,-40.47,0,*69
1515085362.48,32466,7.5,72000.0,-11.89,-40.53,-40.53,0,*64
1515085363.72,32467,7.5,72000.5,-11.89,-40.47,-40.47,0,*65
1515085364.99,32468,7.5,71992.5,-11.87,-40.29,-40.09,0,*66
1515085366.26,32469,7.5,71992.3,-11.87,-40.09,-39.97,0,*6C
1515085367.56,32470,7.5,71988.8,-11.89,-39.79,-39.71,0,*6B
1515085368.83,32471,7.5,71988.3,-11.87,-39.53,-39.53,0,*6C
1515085370.09,32472,7.44,71988.5,-11.87,-39.53,-39.53,0,*6F
1515085371.37,32473,7.5,71988.5,-11.87,-39.71,-39.71,0,*6E
1515085372.65,32474,7.44,71990.3,-11.85,-39.53,-39.53,0,*6B
1515085373.9,32475,7.5,71994.5,-11.85,-39.91,-39.91,0,*6A
1515085375.18,32476,7.5,71990.3,-11.85,-39.71,-39.65,0,*6C
1515085376.45,32477,7.5,71988.0,-11.85,-39.71,-39.85,0,*63
1515085377.71,32478,7.44,71990.3,-11.85,-39.71,-39.85,0,*6C
1515085378.96,32479,7.5,71990.0,-11.83,-39.65,-39.71,0,*65
1515085380.2,32480,7.5,71988.0,-11.85,-39.47,-39.47,0,*60
1515085381.47,32481,7.5,71994.3,-11.85,-39.71,-39.47,0,*64
1515085382.71,32482,7.5,71994.0,-11.85,-39.85,-39.85,0,*62
1515085383.93,32483,7.5,71992.0,-11.83,-39.91,-39.91,0,*65
1515085385.16,32484,7.5,71994.5,-11.83,-39.91,-39.91,0,*62
1515085386.38,32485,7.5,71988.5,-11.83,-39.91,-40.03,0,*66
1515085387.62,32486,7.5,71996.3,-11.81,-39.85,-39.85,0,*62
1515085388.89,32487,7.5,71990.5,-11.81,-39.97,-39.85,0,*60
1515085390.18,32488,7.5,71990.5,-11.81,-39.97,-39.97,0,*6C
1515085391.45,32489,7.5,71990.3,-11.81,-39.79,-39.85,0,*6E
1515085392.73,32490,7.44,71990.0,-11.81,-39.65,-39.79,0,*68
1515085393.97,32491,7.5,71992.8,-11.81,-39.85,-39.85,0,*64
1515085395.22,32492,7.5,71994.5,-11.83,-39.53,-39.65,0,*60
1515085396.49,32493,7.5,71996.0,-11.81,-39.79,-39.85,0,*65
1515085397.8,32494,7.44,71994.5,-11.81,-39.79,-39.79,0,*61
1515085399.05,32495,7.5,71994.5,-11.81,-39.85,-39.85,0,*60
1515085400.32,32496,7.5,71994.5,-11.81,-39.65,-39.79,0,*6E
1515085401.54,32497,7.5,71994.8,-11.79,-39.85,-39.85,0,*65
1515085402.78,32498,7.44,71992.8,-11.81,-40.03,-40.03,0,*6D
1515085404.03,32499,7.5,71996.0,-11.79,-39.85,-39.97,0,*68
1515085405.3,32500,7.5,71994.0,-11.81,-39.79,-39.85,0,*6E
1515085406.54,32501,7.5,71994.8,-11.79,-39.97,-39.85,0,*68
1515085407.76,32502,7.5,71996.0,-11.79,-39.85,-39.85,0,*68
1515085409.05,32503,7.44,71994.8,-11.81,-39.97,-39.97,0,*6E
1515085410.29,32504,7.5,71998.0,-11.79,-40.35,-40.21,0,*6B
1515085411.55,32505,7.5,71998.5,-11.81,-40.21,-40.15,0,*6F
1515085412.77,32506,7.5,71996.8,-11.79,-40.03,-40.03,0,*6C
1515085414.06,32507,7.44,71998.5,-11.81,-39.97,-39.97,0,*6A
1515085415.32,32508,7.5,72002.5,-11.81,-40.03,-39.97,0,*66
1515085416.59,32509,7.5,71996.5,-11.79,-39.97,-39.97,0,*63
1515085417.83,32510,7.44,71998.3,-11.79,-39.97,-39.85,0,*68
1515085419.1,32511,7.5,71996.8,-11.81,-39.79,-39.85,0,*6E
1515085420.35,32512,7.5,71998.3,-11.81,-40.03,-40.15,0,*69
1515085421.64,32513,7.5,72002.8,-11.81,-39.97,-39.97,0,*6F
1515085422.91,32514,7.5,71996.8,-11.79,-39.79,-39.97,0,*6F
1515085424.13,32515,7.44,71992.3,-11.79,-39.65,-39.85,0,*60
1515085425.35,32516,7.5,71996.3,-11.79,-39.85,-39.85,0,*6D
1515085426.59,32517,7.5,71996.8,-11.79,-39.97,-39.85,0,*6F
1515085427.84,32518,7.5,71998.0,-11.79,-39.79,-39.85,0,*60
1515085429.06,32519,7.5,71996.0,-11.79,-39.85,-39.85,0,*62
1515085430.31,32520,7.5,71996.8,-11.79,-39.65,-39.79,0,*65
1515085431.55,32521,7.5,71994.8,-11.79,-39.97,-40.15,0,*6D
1515085432.76,32522,7.5,71996.5,-11.79,-40.03,-40.03,0,*6A
1515085434.04,32523,7.5,72002.3,-11.81,-39.79,-39.85,0,*6F
1515085435.32,32524,7.5,72000.0,-11.79,-39.59,-39.59,0,*6C
1515085436.55,32525,7.5,71990.3,-11.79,-39.29,-39.47,0,*65
1515085437.82,32526,7.5,71994.3,-11.79,-39.41,-39.59,0,*67
1515085439.06,32527,7.5,71990.8,-11.75,-39.35,-39.23,0,*64
1515085440.35,32528,7.5,71990.5,-11.73,-39.59,-39.59,0,*6A
1515085441.63,32529,7.5,71992.3,-11.75,-39.59,-39.79,0,*6F
1515085442.87,32530,7.5,71990.8,-11.75,-39.97,-39.91,0,*63
1515085444.09,32531,7.5,71990.5,-11.75,-39.91,-39.91,0,*64
1515085445.33,32532,7.44,71990.5,-11.79,-39.97,-40.03,0,*68
1515085446.57,32533,7.5,71992.0,-11.79,-40.35,-40.21,0,*6F
1515085447.84,32534,7.5,71990.5,-11.75,-39.71,-39.79,0,*69
1515085449.11,32535,7.5,71992.0,-11.75,-39.71,-39.79,0,*68
1515085450.36,32536,7.44,71988.8,-11.73,-39.91,-39.91,0,*65
1515085451.62,32537,7.5,71992.0,-11.75,-39.97,-39.97,0,*62
1515085452.86,32538,7.5,71990.8,-11.73,-39.91,-39.91,0,*6B
1515085454.11,32539,7.5,71990.5,-11.73,-40.15,-40.15,0,*6A
1515085455.37,32540,7.5,71994.8,-11.73,-40.29,-40.15,0,*6B
1515085456.61,32541,7.44,71990.0,-11.73,-40.35,-40.15,0,*67
1515085457.82,32542,7.5,71994.3,-11.75,-40.35,-40.35,0,*60
1515085459.09,32543,7.5,71992.8,-11.75,-40.09,-40.09,0,*61
1515085460.31,32544,7.5,71992.8,-11.75,-39.91,-39.91,0,*66
1515085461.58,32545,7.5,71990.0,-11.75,-40.09,-40.09,0,*67
1515085462.84,32546,7.5,71992.3,-11.75,-40.29,-40.29,0,*64
1515085464.08,32547,7.5,71992.3,-11.75,-40.53,-40.41,0,*66
1515085465.35,32548,7.44,71992.8,-11.75,-40.41,-40.41,0,*6A
1515085466.56,32549,7.5,71996.5,-11.75,-40.35,-40.35,0,*6B
1515085467.8,32550,7.5,71996.8,-11.75,-40.35,-40.29,0,*6E
1515085469.01,32551,7.5,71996.0,-11.79,-40.47,-40.47,0,*6E
1515085470.25,32552,7.5,71992.5,-11.79,-40.35,-40.21,0,*68
1515085471.52,32553,7.5,71994.3,-11.81,-40.41,-40.35,0,*68
1515085472.8,32554,7.44,71992.5,-11.79,-40.41,-40.41,0,*6B
1515085474.06,32555,7.5,71992.3,-11.81,-40.35,-40.21,0,*68
1515085475.31,32556,7.5,71990.8,-11.79,-40.03,-39.97,0,*6A
1515085476.55,32557,7.5,71990.3,-11.79,-39.65,-39.97,0,*65
1515085477.79,32558,7.5,71992.5,-11.79,-40.21,-40.15,0,*60
1515085479.05,32559,7.5,71994.5,-11.79,-39.97,-39.97,0,*66
1515085480.31,32560,7.5,71994.5,-11.79,-40.21,-40.21,0,*6C
1515085481.55,32561,7.5,71992.3,-11.79,-40.21,-40.15,0,*6A
1515085482.82,32562,7.5,71988.3,-11.79,-39.97,-39.97,0,*6E
1515085484.03,32563,7.5,71992.3,-11.79,-40.03,-40.03,0,*6F
1515085485.26,32564,7.5,71992.5,-11.79,-40.15,-40.15,0,*68
1515085486.52,32565,7.5,71994.0,-11.81,-40.21,-40.03,0,*6E
1515085487.73,32566,7.44,71988.3,-11.79,-40.35,-40.35,0,*6A
1515085488.99,32567,7.5,71990.3,-11.79,-40.21,-40.21,0,*6B
1515085490.27,32568,7.44,71988.8,-11.81,-39.79,-39.85,0,*60
1515085491.55,32569,7.5,71988.0,-11.79,-39.79,-39.79,0,*65
1515085492.8,32570,7.5,71990.5,-11.79,-39.85,-39.79,0,*6E
1515085494.01,32571,7.5,71992.8,-11.79,-40.03,-40.03,0,*6C
1515085495.23,32572,7.5,71992.5,-11.79,-40.15,-40.35,0,*6D
1515085496.48,32573,7.5,71992.8,-11.81,-40.15,-40.03,0,*6E
1515085497.71,32574,7.44,71994.0,-11.79,-40.15,-40.15,0,*69
1515085498.93,32575,7.5,71992.0,-11.79,-39.85,-39.85,0,*68
1515085500.15,32576,7.5,71994.8,-11.79,-39.85,-39.85,0,*6B
1515085501.36,32577,7.5,71998.0,-11.79,-40.03,-40.15,0,*6D
1515085502.59,32578,7.44,71992.8,-11.79,-39.85,-39.65,0,*6B
1515085503.87,32579,7.5,71984.8,-11.75,-39.79,-39.79,0,*68
1515085505.13,32580,7.44,71982.5,-11.75,-39.53,-39.59,0,*64
1515085506.4,32581,7.5,71990.5,-11.75,-39.79,-39.97,0,*6F
1515085507.63,32582,7.5,71988.5,-11.75,-40.15,-40.15,0,*6C
1515085508.89,32583,7.5,71994.3,-11.75,-40.29,-40.29,0,*6D
1515085510.15,32584,7.5,71990.5,-11.75,-40.29,-40.29,0,*6A
1515085511.41,32585,7.5,71990.3,-11.75,-39.97,-39.97,0,*6B
1515085512.65,32586,7.5,71990.0,-11.75,-40.09,-39.91,0,*67
1515085513.92,32587,7.5,71994.0,-11.75,-40.09,-39.97,0,*60
1515085515.17,32588,7.5,71992.8,-11.75,-40.15,-40.09,0,*6B
1515085516.39,32589,7.5,71988.8,-11.75,-40.35,-40.15,0,*65
1515085517.62,32590,7.5,71988.8,-11.79,-40.21,-40.15,0,*64
1515085518.84,32591,7.5,71990.3,-11.79,-40.35,-40.35,0,*62
1515085520.07,32592,7.5,71992.5,-11.79,-40.15,-40.15,0,*61
1515085521.34,32593,7.5,71986.8,-11.79,-39.79,-39.79,0,*60
1515085522.62,32594,7.44,71990.0,-11.75,-39.59,-39.59,0,*6B
1515085523.89,32595,7.5,71994.5,-11.75,-39.71,-39.71,0,*6A
1515085525.14,32596,7.5,71992.0,-11.79,-39.85,-39.79,0,*66
1515085526.4,32597,7.5,71988.8,-11.79,-39.41,-39.41,0,*64
1515085527.66,32598,7.5,71992.3,-11.75,-39.53,-39.41,0,*64
1515085528.93,32599,7.5,71998.3,-11.75,-39.15,-39.15,0,*66
1515085530.22,32600,7.5,71992.3,-11.73,-39.23,-39.03,0,*61
1515085531.52,32601,7.44,71988.0,-11.73,-39.59,-39.59,0,*62
1515085532.8,32602,7.5,71990.8,-11.73,-39.41,-39.53,0,*62
1515085534.09,32603,7.5,71992.8,-11.73,-39.71,-39.53,0,*60
1515085535.34,32604,7.5,71990.3,-11.73,-39.23,-39.35,0,*60
1515085536.58,32605,7.5,71982.0,-11.71,-39.47,-39.35,0,*61
1515085537.82,32606,7.5,71984.0,-11.71,-39.35,-39.47,0,*62
1515085539.08,32607,7.5,71984.8,-11.71,-39.29,-39.35,0,*6B
1515085540.35,32608,7.5,71990.0,-11.71,-39.29,-39.35,0,*64
1515085541.59,32609,7.5,71988.0,-11.69,-39.53,-39.65,0,*64
1515085542.86,32610,7.5,71990.8,-11.69,-39.71,-39.71,0,*69
1515085544.11,32611,7.5,71990.3,-11.71,-39.91,-39.91,0,*61
1515085545.39,32612,7.5,71988.5,-11.71,-39.65,-39.71,0,*67
1515085546.61,32613,7.5,71984.8,-11.69,-39.85,-39.91,0,*6F
1515085547.86,32614,7.5,71994.5,-11.71,-39.91,-39.91,0,*64
1515085549.08,32615,7.5,71994.0,-11.69,-40.03,-40.03,0,*6C
1515085550.35,32616,7.5,71990.0,-11.71,-40.09,-40.03,0,*6C
1515085551.65,32617,7.5,71994.5,-11.71,-40.09,-40.09,0,*67
1515085552.9,32618,7.5,71988.3,-11.71,-39.91,-39.91,0,*68
1515085554.16,32619,7.44,71986.5,-11.71,-40.21,-40.03,0,*69
1515085555.42,32620,7.5,71990.5,-11.71,-40.21,-40.03,0,*63
1515085556.67,32621,7.5,71988.3,-11.71,-40.03,-39.91,0,*67
1515085557.96,32622,7.5,71990.5,-11.71,-40.21,-40.09,0,*6B
1515085559.21,32623,7.5,71994.3,-11.69,-40.09,-39.91,0,*66
1515085560.46,32624,7.5,71992.5,-11.71,-40.03,-39.91,0,*62
1515085561.7,32625,7.5,71994.8,-11.71,-39.85,-39.85,0,*66
1515085562.95,32626,7.5,71990.5,-11.71,-39.85,-39.85,0,*65
1515085564.2,32627,7.5,71984.3,-11.71,-39.65,-39.65,0,*64
1515085565.44,32628,7.5,71984.5,-11.71,-39.35,-39.35,0,*6B
1515085566.71,32629,7.5,71990.8,-11.71,-39.35,-39.29,0,*67
1515085567.96,32630,7.5,71988.5,-11.71,-39.85,-39.85,0,*62
1515085569.2,32631,7.5,71986.5,-11.69,-39.65,-39.71,0,*6F
1515085570.48,32632,7.5,71984.0,-11.71,-39.85,-39.71,0,*6B
1515085571.75,32633,7.5,71982.0,-11.71,-39.53,-39.65,0,*64
1515085573.03,32634,7.5,71980.0,-11.71,-39.65,-39.71,0,*63
1515085574.3,32635,7.5,71976.8,-11.71,-39.71,-39.85,0,*6C
1515085575.57,32636,7.44,71978.3,-11.69,-39.71,-39.71,0,*6D
1515085576.8,32637,7.44,71978.3,-11.69,-39.65,-39.65,0,*6C
1515085578.07,32638,7.5,71978.3,-11.71,-39.71,-39.65,0,*6F
1515085579.34,32639,7.5,71974.5,-11.69,-39.29,-39.15,0,*6D
1515085580.63,32640,7.5,71978.0,-11.71,-39.53,-39.53,0,*65
1515085581.84,32641,7.44,71976.5,-11.69,-39.35,-39.35,0,*6D
1515085583.05,32642,7.5,71980.5,-11.69,-39.47,-39.47,0,*6E
1515085584.26,32643,7.5,71980.3,-11.69,-39.47,-39.47,0,*6F
1515085585.52,32644,7.5,71982.0,-11.69,-39.53,-39.53,0,*68
1515085586.77,32645,7.5,71980.3,-11.67,-39.65,-39.65,0,*67
1515085588.04,32646,7.5,71980.0,-11.67,-39.65,-39.59,0,*6B
1515085589.27,32647,7.5,71984.3,-11.67,-39.47,-39.47,0,*65
1515085590.55,32648,7.5,71990.5,-11.67,-39.79,-39.65,0,*67
1515085591.82,32649,7.5,71988.3,-11.67,-39.59,-39.47,0,*64
1515085593.1,32650,7.5,71984.5,-11.67,-39.23,-39.41,0,*67
1515085594.35,32651,7.5,71988.5,-11.67,-39.65,-39.65,0,*62
1515085595.64,32652,7.5,71982.8,-11.67,-39.41,-39.41,0,*61
1515085596.9,32653,7.5,71986.5,-11.65,-39.23,-38.91,0,*6A
1515085598.17,32654,7.5,71988.0,-11.65,-39.23,-39.29,0,*6F
1515085599.43,32655,7.44,71982.5,-11.67,-39.41,-39.47,0,*60
1515085600.71,32656,7.5,71982.5,-11.67,-39.29,-39.23,0,*6F
1515085602.0,32657,7.5,71982.5,-11.67,-39.29,-39.23,0,*6E
1515085603.26,32658,7.44,71980.0,-11.65,-39.29,-39.29,0,*69
1515085604.52,32659,7.5,71980.5,-11.65,-39.41,-39.29,0,*66
1515085605.76,32660,7.5,71982.8,-11.65,-39.47,-39.41,0,*64
1515085607.02,32661,7.5,71982.3,-11.65,-39.29,-39.23,0,*69
1515085608.28,32662,7.5,71982.3,-11.65,-39.23,-39.23,0,*60
1515085609.54,32663,7.5,71982.0,-11.65,-39.29,-39.41,0,*6F
1515085610.8,32664,7.5,71988.0,-11.65,-39.29,-39.41,0,*68
1515085612.08,32665,7.5,71986.5,-11.61,-39.59,-39.59,0,*63
1515085613.34,32666,7.44,71978.8,-11.61,-39.23,-39.15,0,*65
1515085614.61,32667,7.5,71984.3,-11.61,-39.15,-39.23,0,*64
1515085615.88,32668,7.5,71988.0,-11.61,-39.15,-39.15,0,*6E
1515085617.08,32669,7.5,71988.8,-11.61,-39.35,-39.35,0,*6F
1515085618.34,32670,7.5,71988.8,-11.59,-39.29,-39.35,0,*61
1515085619.63,32671,7.5,71988.3,-11.59,-39.15,-39.29,0,*62
1515085620.91,32672,7.5,71988.0,-11.59,-39.53,-39.53,0,*6E
1515085622.15,32673,7.44,71988.5,-11.61,-39.85,-39.71,0,*6F
1515085623.4,32674,7.5,71992.0,-11.59,-39.65,-39.65,0,*68
1515085624.7,32675,7.5,71986.8,-11.59,-39.71,-39.71,0,*69
1515085625.94,32676,7.5,71992.5,-11.59,-39.85,-39.65,0,*64
1515085627.21,32677,7.5,71994.0,-11.59,-39.85,-39.71,0,*60
1515085628.48,32678,7.5,71988.3,-11.61,-39.59,-39.53,0,*65
1515085629.76,32679,7.5,71992.5,-11.59,-39.29,-39.29,0,*65
1515085630.99,32680,7.5,71994.0,-11.59,-39.35,-39.35,0,*63
1515085632.22,32681,7.5,71990.8,-11.59,-39.35,-39.35,0,*62
1515085633.46,32682,7.5,71992.8,-11.59,-39.35,-39.47,0,*64
1515085634.72,32683,7.5,71986.8,-11.59,-39.35,-39.29,0,*6D
1515085635.94,32684,7.44,71986.8,-11.57,-39.65,-39.65,0,*69
1515085637.17,32685,7.5,71988.0,-11.57,-39.47,-39.53,0,*6D
1515085638.41,32686,7.5,71990.5,-11.57,-39.65,-39.53,0,*6E
1515085639.65,32687,7.5,71994.0,-11.57,-39.85,-39.71,0,*61
1515085640.9,32688,7.5,71992.3,-11.59,-39.65,-39.65,0,*6B
1515085642.12,32689,7.5,71992.3,-11.57,-39.65,-39.65,0,*64
1515085643.36,32690,7.5,71994.8,-11.57,-39.91,-39.71,0,*62
1515085644.61,32691,7.5,71992.0,-11.57,-39.53,-39.53,0,*6D
1515085645.86,32692,7.5,71992.5,-11.55,-39.65,-39.65,0,*6C
1515085647.16,32693,7.5,71996.5,-11.59,-39.71,-39.71,0,*61
1515085648.42,32694,7.5,71994.0,-11.57,-39.53,-39.71,0,*68
1515085649.69,32695,7.5,71994.0,-11.57,-39.71,-39.71,0,*69
1515085650.93,32696,7.5,71998.3,-11.55,-39.85,-39.65,0,*66
1515085652.14,32697,7.5,71998.8,-11.57,-40.03,-39.91,0,*6E
1515085653.36,32698,7.5,71998.0,-11.57,-39.91,-39.85,0,*61
1515085654.63,32699,7.5,71996.0,-11.59,-39.71,-39.65,0,*6E
1515085655.88,32700,7.44,71992.0,-11.59,-39.91,-39.91,0,*6A
1515085657.12,32701,7.5,71994.8,-11.59,-39.85,-39.85,0,*6B
1515085658.39,32702,7.5,71994.3,-11.59,-39.71,-39.85,0,*63
1515085659.68,32703,7.5,71992.8,-11.59,-39.71,-39.71,0,*69
1515085660.9,32704,7.5,71998.3,-11.57,-39.85,-39.91,0,*65
1515085662.14,32705,7.5,71992.5,-11.57,-39.71,-39.65,0,*64
1515085663.35,32706,7.5,71992.8,-11.57,-39.47,-39.47,0,*62
1515085664.62,32707,7.5,71994.0,-11.55,-39.47,-39.41,0,*67
1515085665.88,32708,7.5,71988.5,-11.57,-39.15,-39.15,0,*6C
1515085667.11,32709,7.5,71986.0,-11.57,-39.29,-39.35,0,*60
1515085668.38,32710,7.5,71988.0,-11.57,-39.15,-39.29,0,*6A
1515085669.65,32711,7.44,71984.5,-11.55,-39.47,-39.59,0,*69
1515085670.86,32712,7.5,71996.0,-11.57,-39.47,-39.47,0,*67
1515085672.12,32713,7.44,71992.8,-11.57,-39.71,-39.71,0,*66
1515085673.41,32714,7.44,71988.3,-11.55,-39.23,-39.23,0,*63
1515085674.65,32715,7.5,71992.5,-11.55,-39.47,-39.47,0,*62
1515085675.92,32716,7.5,71990.5,-11.55,-39.65,-39.59,0,*6E
1515085677.19,32717,7.5,71994.8,-11.55,-39.59,-39.65,0,*6F
1515085678.43,32718,7.5,71994.8,-11.57,-39.53,-39.65,0,*68
1515085679.7,32719,7.5,71996.0,-11.55,-39.47,-39.29,0,*66
1515085680.93,32720,7.5,71992.3,-11.55,-39.47,-39.47,0,*64
1515085682.2,32721,7.5,71996.5,-11.55,-39.85,-39.79,0,*66
1515085683.5,32722,7.5,71996.0,-11.55,-39.79,-39.79,0,*66
1515085684.8,32723,7.5,71994.3,-11.55,-39.59,-39.59,0,*67
1515085686.04,32724,7.5,71992.8,-11.55,-39.47,-39.47,0,*60
1515085687.31,32725,7.5,71992.5,-11.55,-39.59,-39.65,0,*6E
1515085688.59,32726,7.5,71992.8,-11.55,-39.65,-39.59,0,*6D
1515085689.82,32727,7.5,71998.8,-11.55,-39.47,-39.47,0,*63
1515085691.08,32728,7.5,71994.8,-11.55,-39.97,-39.85,0,*6F
1515085692.32,32729,7.5,71992.5,-11.57,-39.85,-39.79,0,*6C
1515085693.6,32730,7.5,71992.0,-11.55,-39.79,-39.65,0,*68
1515085694.86,32731,7.5,71992.5,-11.55,-39.97,-39.85,0,*67
1515085696.13,32732,7.44,71994.8,-11.55,-39.85,-39.79,0,*64
1515085697.41,32733,7.5,71994.0,-11.55,-39.79,-39.65,0,*6B
1515085698.68,32734,7.5,72002.3,-11.55,-39.65,-39.79,0,*6C
1515085699.96,32735,7.5,71998.8,-11.55,-39.97,-39.97,0,*60
1515085701.23,32736,7.5,71990.5,-11.55,-39.59,-39.47,0,*6C
1515085702.5,32737,7.5,71986.5,-11.55,-39.03,-39.09,0,*68
1515085703.73,32738,7.5,71982.5,-11.49,-39.23,-39.35,0,*67
1515085705.01,32739,7.5,71984.0,-11.51,-39.29,-39.41,0,*66
1515085706.28,32740,7.5,71984.8,-11.51,-39.79,-39.65,0,*6B
1515085707.58,32741,7.5,71982.8,-11.51,-39.59,-39.59,0,*67
1515085708.84,32742,7.44,71982.5,-11.49,-39.59,-39.53,0,*67